| time (UTC) | temp F | wind direction | speed MPH | gust MPH | rain 1hr in | rain 24hr in | rain mn in | humidity % | barometer mb |
| 20260505153157 | 46 | 272 | 0.0 | 9.0 | 0.00 | 0.00 | 0.00 | 57 | 1010.0 |
| 20260505152158 | 45 | 277 | 3.0 | 13.0 | 0.00 | 0.00 | 0.00 | 56 | 1010.1 |
| 20260505151157 | 45 | 334 | 0.0 | 8.0 | 0.00 | 0.00 | 0.00 | 58 | 1010.0 |
| 20260505150656 | 45 | 345 | 8.0 | 13.0 | 0.00 | 0.00 | 0.00 | 57 | 1010.1 |
| 20260505150156 | 45 | 343 | 7.0 | 10.0 | 0.00 | 0.00 | 0.00 | 58 | 1010.0 |
| 20260505130157 | 42 | 315 | 4.0 | 6.0 | 0.00 | 0.02 | 0.00 | 64 | 1009.5 |
| 20260505124656 | 41 | 320 | 0.0 | 4.0 | 0.00 | 0.02 | 0.00 | 66 | 1009.4 |
| 20260505124157 | 41 | 345 | 0.0 | 9.0 | 0.00 | 0.02 | 0.00 | 65 | 1009.3 |
| 20260505123657 | 41 | 319 | 0.0 | 0.0 | 0.00 | 0.02 | 0.00 | 67 | 1009.2 |
| 20260505123156 | 41 | 319 | 0.0 | 5.0 | 0.00 | 0.02 | 0.00 | 66 | 1009.1 |
| 20260505122656 | 41 | 341 | 0.0 | 0.0 | 0.00 | 0.02 | 0.00 | 68 | 1009.0 |
| 20260505122159 | 40 | 324 | 4.0 | 9.0 | 0.00 | 0.02 | 0.00 | 67 | 1008.9 |
| 20260505121657 | 40 | 312 | 0.0 | 2.0 | 0.00 | 0.02 | 0.00 | 70 | 1008.8 |
| 20260505121157 | 40 | 323 | 0.0 | 6.0 | 0.00 | 0.02 | 0.00 | 69 | 1008.8 |
| 20260505120657 | 40 | 267 | 0.0 | 4.0 | 0.00 | 0.02 | 0.00 | 70 | 1008.7 |
| 20260505120233 | 40 | 268 | 0.0 | 0.0 | 0.00 | 0.02 | 0.00 | 72 | 1008.7 |
| 20260505120156 | 40 | 268 | 0.0 | 0.0 | 0.00 | 0.02 | 0.00 | 72 | 1008.7 |
| 20260505115656 | 40 | 330 | 0.0 | 0.0 | 0.00 | 0.02 | 0.00 | 73 | 1008.6 |
| 20260505115228 | 40 | 326 | 0.0 | 7.0 | 0.00 | 0.02 | 0.00 | 73 | 1008.5 |
| 20260505115156 | 40 | 326 | 0.0 | 7.0 | 0.00 | 0.02 | 0.00 | 73 | 1008.5 |
| 20260505114656 | 40 | 322 | 0.0 | 2.0 | 0.00 | 0.02 | 0.00 | 74 | 1008.5 |
| 20260505114307 | 39 | 4 | 0.0 | 0.0 | 0.00 | 0.02 | 0.00 | 74 | 1008.3 |
| 20260505114156 | 39 | 4 | 0.0 | 0.0 | 0.00 | 0.02 | 0.00 | 74 | 1008.3 |
| 20260505113656 | 39 | 323 | 0.0 | 8.0 | 0.00 | 0.02 | 0.00 | 75 | 1008.1 |
| 20260505113231 | 39 | 343 | 0.0 | 8.0 | 0.00 | 0.02 | 0.00 | 77 | 1008.1 |
| 20260505113157 | 39 | 343 | 0.0 | 8.0 | 0.00 | 0.02 | 0.00 | 77 | 1008.1 |
| 20260505112657 | 39 | 324 | 0.0 | 9.0 | 0.00 | 0.02 | 0.00 | 77 | 1007.9 |
| 20260505112156 | 39 | 285 | 0.0 | 5.0 | 0.00 | 0.02 | 0.00 | 78 | 1008.0 |
| 20260505111657 | 39 | 285 | 0.0 | 5.0 | 0.00 | 0.02 | 0.00 | 77 | 1007.9 |
| 20260505110657 | 40 | 326 | 0.0 | 6.0 | 0.00 | 0.02 | 0.00 | 77 | 1007.7 |
| 20260505102156 | 39 | 300 | 0.0 | 0.0 | 0.00 | 0.02 | 0.00 | 78 | 1007.4 |
| 20260505101657 | 39 | 300 | 0.0 | 4.0 | 0.00 | 0.02 | 0.00 | 78 | 1007.4 |
| 20260505101156 | 39 | 323 | 0.0 | 4.0 | 0.00 | 0.02 | 0.00 | 78 | 1007.4 |
| 20260505100656 | 39 | 271 | 0.0 | 0.0 | 0.00 | 0.02 | 0.00 | 78 | 1007.3 |
| 20260505095656 | 39 | 271 | 0.0 | 0.0 | 0.00 | 0.02 | 0.00 | 77 | 1007.3 |
| 20260505095156 | 39 | 286 | 0.0 | 0.0 | 0.00 | 0.02 | 0.00 | 76 | 1007.3 |
| 20260505094656 | 39 | 286 | 0.0 | 3.0 | 0.00 | 0.02 | 0.00 | 76 | 1007.3 |
| 20260505094156 | 40 | 296 | 0.0 | 0.0 | 0.00 | 0.02 | 0.00 | 76 | 1007.2 |
| 20260505093657 | 40 | 315 | 0.0 | 0.0 | 0.00 | 0.02 | 0.00 | 75 | 1007.1 |
| 20260505093158 | 40 | 315 | 0.0 | 0.0 | 0.00 | 0.02 | 0.00 | 75 | 1007.1 |
| 20260505092656 | 40 | 274 | 0.0 | 0.0 | 0.00 | 0.02 | 0.00 | 75 | 1007.1 |
| 20260505092156 | 40 | 260 | 0.0 | 0.0 | 0.00 | 0.02 | 0.00 | 74 | 1007.0 |
| 20260505091736 | 40 | 260 | 0.0 | 0.0 | 0.00 | 0.02 | 0.00 | 74 | 1007.0 |
| 20260505091656 | 40 | 260 | 0.0 | 0.0 | 0.00 | 0.02 | 0.00 | 74 | 1007.0 |
| 20260505091156 | 40 | 320 | 0.0 | 5.0 | 0.00 | 0.02 | 0.00 | 74 | 1007.0 |
| 20260505090656 | 41 | 303 | 0.0 | 4.0 | 0.00 | 0.02 | 0.00 | 73 | 1006.9 |
| 20260505090156 | 41 | 281 | 0.0 | 0.0 | 0.00 | 0.02 | 0.00 | 72 | 1006.9 |
| 20260505085657 | 41 | 281 | 0.0 | 0.0 | 0.00 | 0.04 | 0.00 | 72 | 1006.8 |
| 20260505085159 | 41 | 281 | 0.0 | 6.0 | 0.00 | 0.04 | 0.00 | 72 | 1006.7 |
| 20260505084656 | 41 | 295 | 0.0 | 3.0 | 0.00 | 0.04 | 0.00 | 72 | 1006.6 |
| 20260505084156 | 41 | 261 | 0.0 | 7.0 | 0.00 | 0.04 | 0.00 | 72 | 1006.6 |
| 20260505083657 | 42 | 299 | 0.0 | 0.0 | 0.00 | 0.04 | 0.00 | 71 | 1006.5 |
| 20260505083239 | 42 | 299 | 0.0 | 0.0 | 0.00 | 0.04 | 0.00 | 71 | 1006.4 |
| 20260505083157 | 42 | 299 | 0.0 | 0.0 | 0.00 | 0.04 | 0.00 | 71 | 1006.4 |
| 20260505082729 | 42 | 289 | 0.0 | 7.0 | 0.00 | 0.04 | 0.00 | 71 | 1006.3 |
| 20260505082657 | 42 | 289 | 0.0 | 7.0 | 0.00 | 0.04 | 0.00 | 71 | 1006.3 |
| 20260505082240 | 41 | 345 | 4.0 | 8.0 | 0.00 | 0.04 | 0.00 | 71 | 1006.3 |
| 20260505082157 | 41 | 345 | 4.0 | 8.0 | 0.00 | 0.04 | 0.00 | 71 | 1006.3 |
| 20260505081657 | 42 | 251 | 0.0 | 4.0 | 0.00 | 0.04 | 0.00 | 71 | 1006.2 |
| 20260505081201 | 42 | 260 | 0.0 | 5.0 | 0.00 | 0.04 | 0.00 | 71 | 1006.2 |
| 20260505080658 | 42 | 305 | 0.0 | 6.0 | 0.00 | 0.04 | 0.00 | 71 | 1006.2 |
| 20260505080159 | 42 | 305 | 6.0 | 8.0 | 0.00 | 0.04 | 0.00 | 72 | 1006.2 |
| 20260505075656 | 42 | 352 | 0.0 | 0.0 | 0.00 | 0.04 | 0.00 | 72 | 1006.2 |
| 20260505075157 | 42 | 352 | 0.0 | 0.0 | 0.00 | 0.04 | 0.00 | 71 | 1006.1 |
| 20260505074657 | 42 | 352 | 0.0 | 0.0 | 0.00 | 0.04 | 0.00 | 71 | 1005.9 |
| 20260505074157 | 42 | 310 | 0.0 | 0.0 | 0.00 | 0.04 | 0.00 | 71 | 1006.0 |
| 20260505073657 | 42 | 310 | 0.0 | 0.0 | 0.00 | 0.04 | 0.00 | 71 | 1006.1 |
| 20260505073157 | 42 | 310 | 0.0 | 0.0 | 0.00 | 0.04 | 0.00 | 72 | 1006.1 |
| 20260505072657 | 42 | 310 | 0.0 | 0.0 | 0.00 | 0.04 | 0.00 | 71 | 1006.0 |
| 20260505072239 | 42 | 310 | 0.0 | 0.0 | 0.00 | 0.04 | 0.00 | 71 | 1005.9 |
| 20260505072159 | 42 | 310 | 0.0 | 0.0 | 0.00 | 0.04 | 0.00 | 71 | 1005.9 |
| 20260505071727 | 42 | 310 | 0.0 | 0.0 | 0.00 | 0.04 | 0.00 | 70 | 1006.0 |
| 20260505071657 | 42 | 310 | 0.0 | 0.0 | 0.00 | 0.04 | 0.00 | 70 | 1006.0 |
| 20260505070657 | 42 | 286 | 0.0 | 0.0 | 0.00 | 0.04 | 0.00 | 70 | 1006.0 |
| 20260505070157 | 42 | 293 | 0.0 | 0.0 | 0.00 | 0.04 | 0.00 | 71 | 1006.0 |
| 20260505065658 | 42 | 293 | 0.0 | 6.0 | 0.00 | 0.04 | 0.00 | 71 | 1006.0 |
| 20260505065158 | 42 | 315 | 0.0 | 0.0 | 0.00 | 0.04 | 0.00 | 71 | 1006.1 |
| 20260505064656 | 42 | 327 | 0.0 | 0.0 | 0.00 | 0.04 | 0.00 | 71 | 1006.1 |
| 20260505063657 | 43 | 327 | 0.0 | 0.0 | 0.00 | 0.04 | 0.00 | 70 | 1006.0 |
| 20260505063159 | 43 | 327 | 0.0 | 0.0 | 0.00 | 0.04 | 0.00 | 69 | 1005.9 |
| 20260505062658 | 43 | 327 | 0.0 | 0.0 | 0.00 | 0.04 | 0.00 | 69 | 1005.9 |
| 20260505062205 | 43 | 327 | 0.0 | 0.0 | 0.00 | 0.04 | 0.00 | 69 | 1006.0 |
| 20260505061657 | 43 | 270 | 0.0 | 0.0 | 0.00 | 0.04 | 0.00 | 69 | 1006.0 |
| 20260505060658 | 43 | 233 | 0.0 | 3.0 | 0.00 | 0.04 | 0.00 | 69 | 1005.9 |
| 20260505060157 | 43 | 271 | 0.0 | 0.0 | 0.00 | 0.04 | 0.00 | 70 | 1006.1 |
| 20260505055657 | 43 | 271 | 0.0 | 6.0 | 0.00 | 0.04 | 0.00 | 70 | 1005.9 |
| 20260505055230 | 43 | 268 | 0.0 | 0.0 | 0.00 | 0.04 | 0.00 | 70 | 1005.9 |
| 20260505055159 | 43 | 268 | 0.0 | 0.0 | 0.00 | 0.04 | 0.00 | 70 | 1005.9 |
| 20260505054657 | 43 | 246 | 0.0 | 3.0 | 0.00 | 0.04 | 0.00 | 70 | 1005.8 |
| 20260505053659 | 43 | 270 | 0.0 | 0.0 | 0.00 | 0.04 | 0.00 | 71 | 1005.8 |
| 20260505053157 | 42 | 265 | 0.0 | 0.0 | 0.00 | 0.04 | 0.00 | 71 | 1005.7 |
| 20260505052658 | 42 | 265 | 0.0 | 0.0 | 0.00 | 0.04 | 0.00 | 71 | 1005.7 |
| 20260505051657 | 42 | 262 | 0.0 | 0.0 | 0.00 | 0.04 | 0.00 | 71 | 1005.6 |
| 20260505051157 | 43 | 262 | 0.0 | 0.0 | 0.00 | 0.04 | 0.00 | 71 | 1005.6 |
| 20260505050657 | 43 | 262 | 0.0 | 0.0 | 0.00 | 0.04 | 0.00 | 71 | 1005.5 |
| 20260505050158 | 43 | 250 | 0.0 | 0.0 | 0.00 | 0.04 | 0.00 | 71 | 1005.5 |
| 20260505041659 | 44 | 250 | 0.0 | 4.0 | 0.00 | 0.04 | 0.04 | 67 | 1005.3 |
| 20260505041158 | 44 | 316 | 0.0 | 0.0 | 0.00 | 0.04 | 0.04 | 67 | 1005.3 |
| 20260505040659 | 44 | 316 | 0.0 | 0.0 | 0.00 | 0.04 | 0.04 | 66 | 1005.3 |
| 20260505040158 | 44 | 316 | 0.0 | 0.0 | 0.00 | 0.04 | 0.04 | 66 | 1005.3 |
| 20260505035658 | 44 | 316 | 0.0 | 0.0 | 0.00 | 0.04 | 0.04 | 66 | 1005.3 |
| 20260505035159 | 45 | 316 | 0.0 | 0.0 | 0.00 | 0.04 | 0.04 | 65 | 1005.3 |
| 20260505034658 | 45 | 316 | 0.0 | 0.0 | 0.00 | 0.04 | 0.04 | 65 | 1005.2 |
| 20260505034159 | 45 | 316 | 0.0 | 0.0 | 0.00 | 0.04 | 0.04 | 65 | 1005.2 |
| 20260505033158 | 45 | 316 | 0.0 | 0.0 | 0.00 | 0.04 | 0.04 | 64 | 1005.2 |
| 20260505032658 | 45 | 316 | 0.0 | 0.0 | 0.00 | 0.04 | 0.04 | 64 | 1005.2 |
| 20260505032159 | 45 | 316 | 0.0 | 0.0 | 0.00 | 0.04 | 0.04 | 63 | 1005.2 |
| 20260505031658 | 45 | 316 | 0.0 | 0.0 | 0.00 | 0.04 | 0.04 | 63 | 1005.1 |
| 20260505031159 | 45 | 316 | 0.0 | 0.0 | 0.00 | 0.04 | 0.04 | 63 | 1005.2 |
| 20260505030658 | 45 | 316 | 0.0 | 0.0 | 0.00 | 0.04 | 0.04 | 63 | 1005.1 |
| 20260505030158 | 46 | 316 | 0.0 | 0.0 | 0.00 | 0.04 | 0.04 | 62 | 1005.1 |
| 20260505025658 | 46 | 316 | 0.0 | 0.0 | 0.00 | 0.04 | 0.04 | 62 | 1005.0 |
| 20260505025159 | 46 | 316 | 0.0 | 0.0 | 0.00 | 0.04 | 0.04 | 61 | 1005.0 |
| 20260505024658 | 46 | 316 | 0.0 | 0.0 | 0.00 | 0.04 | 0.04 | 61 | 1004.9 |
| 20260505024158 | 47 | 316 | 0.0 | 0.0 | 0.00 | 0.04 | 0.04 | 60 | 1004.9 |
| 20260505023658 | 47 | 316 | 0.0 | 0.0 | 0.00 | 0.04 | 0.04 | 60 | 1004.8 |
| 20260505023158 | 47 | 316 | 0.0 | 0.0 | 0.00 | 0.04 | 0.04 | 60 | 1004.8 |
| 20260505022802 | 47 | 316 | 0.0 | 0.0 | 0.00 | 0.04 | 0.04 | 59 | 1004.8 |
| 20260505022659 | 47 | 316 | 0.0 | 0.0 | 0.00 | 0.04 | 0.04 | 59 | 1004.8 |
| 20260505022201 | 47 | 316 | 0.0 | 0.0 | 0.00 | 0.04 | 0.04 | 59 | 1004.7 |
| 20260505021700 | 47 | 316 | 0.0 | 0.0 | 0.00 | 0.04 | 0.04 | 58 | 1004.6 |
| 20260505020700 | 48 | 316 | 0.0 | 0.0 | 0.00 | 0.04 | 0.04 | 57 | 1004.5 |
| 20260505020159 | 48 | 316 | 0.0 | 0.0 | 0.00 | 0.04 | 0.04 | 56 | 1004.5 |
| 20260505015700 | 48 | 316 | 0.0 | 7.0 | 0.00 | 0.04 | 0.04 | 56 | 1004.4 |
| 20260505015201 | 48 | 323 | 3.0 | 3.0 | 0.00 | 0.04 | 0.04 | 56 | 1004.4 |
| 20260505014700 | 48 | 291 | 0.0 | 9.0 | 0.00 | 0.04 | 0.04 | 56 | 1004.2 |
| 20260505014159 | 49 | 319 | 0.0 | 8.0 | 0.00 | 0.04 | 0.04 | 56 | 1004.4 |
| 20260505013159 | 49 | 286 | 3.0 | 6.0 | 0.00 | 0.04 | 0.04 | 56 | 1004.2 |
| 20260505012659 | 49 | 307 | 4.0 | 11.0 | 0.00 | 0.04 | 0.04 | 55 | 1004.1 |
| 20260505012200 | 49 | 338 | 0.0 | 7.0 | 0.00 | 0.04 | 0.04 | 56 | 1004.0 |
| 20260505011700 | 49 | 284 | 0.0 | 14.0 | 0.00 | 0.04 | 0.04 | 56 | 1004.0 |
| 20260505011200 | 50 | 329 | 4.0 | 14.0 | 0.00 | 0.04 | 0.04 | 55 | 1003.8 |
| 20260505010700 | 50 | 302 | 0.0 | 14.0 | 0.00 | 0.04 | 0.04 | 55 | 1003.8 |
| 20260505010200 | 50 | 344 | 7.0 | 13.0 | 0.00 | 0.04 | 0.04 | 55 | 1003.6 |
| 20260505005700 | 50 | 348 | 6.0 | 18.0 | 0.00 | 0.04 | 0.04 | 55 | 1003.5 |
| 20260505005201 | 50 | 347 | 9.0 | 16.0 | 0.00 | 0.04 | 0.04 | 55 | 1003.5 |
| 20260505004700 | 51 | 306 | 8.0 | 24.0 | 0.00 | 0.04 | 0.04 | 55 | 1003.3 |
| 20260505004200 | 51 | 324 | 5.0 | 14.0 | 0.00 | 0.04 | 0.04 | 55 | 1003.2 |
| 20260505003659 | 51 | 303 | 14.0 | 15.0 | 0.00 | 0.04 | 0.04 | 55 | 1003.1 |
| 20260505002700 | 52 | 336 | 6.0 | 14.0 | 0.00 | 0.04 | 0.04 | 53 | 1003.0 |
| 20260505002202 | 52 | 336 | 11.0 | 15.0 | 0.00 | 0.04 | 0.04 | 52 | 1002.9 |
| 20260505001701 | 52 | 281 | 9.0 | 21.0 | 0.00 | 0.04 | 0.04 | 52 | 1002.8 |
| 20260505001201 | 52 | 327 | 11.0 | 19.0 | 0.00 | 0.04 | 0.04 | 52 | 1002.8 |
| 20260505000700 | 53 | 322 | 5.0 | 13.0 | 0.00 | 0.04 | 0.04 | 52 | 1002.7 |
| 20260505000200 | 53 | 358 | 8.0 | 18.0 | 0.00 | 0.04 | 0.04 | 52 | 1002.7 |
| 20260504235701 | 52 | 285 | 15.0 | 21.0 | 0.00 | 0.04 | 0.04 | 52 | 1002.6 |
| 20260504235202 | 52 | 338 | 2.0 | 19.0 | 0.00 | 0.04 | 0.04 | 52 | 1002.6 |
| 20260504234701 | 53 | 317 | 3.0 | 17.0 | 0.00 | 0.04 | 0.04 | 52 | 1002.6 |
| 20260504234201 | 53 | 303 | 7.0 | 21.0 | 0.00 | 0.04 | 0.04 | 52 | 1002.5 |
| 20260504233710 | 53 | 306 | 8.0 | 15.0 | 0.00 | 0.04 | 0.04 | 51 | 1002.4 |
| 20260504233201 | 53 | 316 | 7.0 | 13.0 | 0.00 | 0.04 | 0.04 | 52 | 1002.4 |
| 20260504232701 | 53 | 334 | 7.0 | 15.0 | 0.00 | 0.04 | 0.04 | 51 | 1002.1 |
| 20260504232201 | 53 | 334 | 7.0 | 22.0 | 0.00 | 0.04 | 0.04 | 52 | 1002.1 |
| 20260504231701 | 53 | 338 | 7.0 | 19.0 | 0.00 | 0.04 | 0.04 | 52 | 1002.0 |
| 20260504231201 | 53 | 310 | 6.0 | 16.0 | 0.00 | 0.04 | 0.04 | 52 | 1001.9 |
| 20260504230701 | 53 | 315 | 14.0 | 19.0 | 0.00 | 0.04 | 0.04 | 52 | 1001.9 |
| 20260504230201 | 53 | 322 | 11.0 | 25.0 | 0.00 | 0.04 | 0.04 | 51 | 1001.8 |
| 20260504225701 | 54 | 270 | 6.0 | 15.0 | 0.00 | 0.04 | 0.04 | 51 | 1001.5 |
| 20260504225202 | 54 | 264 | 0.0 | 12.0 | 0.00 | 0.04 | 0.04 | 52 | 1001.5 |
| 20260504224701 | 54 | 343 | 8.0 | 10.0 | 0.00 | 0.04 | 0.04 | 52 | 1001.4 |
| 20260504224205 | 54 | 277 | 5.0 | 15.0 | 0.00 | 0.04 | 0.04 | 51 | 1001.3 |
| 20260504222700 | 55 | 313 | 8.0 | 15.0 | 0.00 | 0.04 | 0.04 | 51 | 1000.9 |
| 20260504222203 | 55 | 292 | 9.0 | 18.0 | 0.00 | 0.04 | 0.04 | 51 | 1000.8 |
| 20260504221703 | 55 | 327 | 15.0 | 20.0 | 0.00 | 0.04 | 0.04 | 52 | 1000.6 |
| 20260504220711 | 56 | 296 | 8.0 | 13.0 | 0.00 | 0.04 | 0.04 | 50 | 1000.4 |
| 20260504220202 | 56 | 347 | 7.0 | 21.0 | 0.00 | 0.04 | 0.04 | 51 | 1000.4 |
| 20260504215203 | 56 | 299 | 11.0 | 19.0 | 0.00 | 0.04 | 0.04 | 50 | 1000.2 |
| 20260504214702 | 55 | 299 | 7.0 | 20.0 | 0.00 | 0.04 | 0.04 | 50 | 1000.1 |
| 20260504214202 | 55 | 310 | 9.0 | 27.0 | 0.00 | 0.04 | 0.04 | 51 | 1000.0 |
| 20260504213701 | 56 | 322 | 14.0 | 17.0 | 0.00 | 0.04 | 0.04 | 52 | 999.9 |
| 20260504213201 | 56 | 299 | 5.0 | 19.0 | 0.00 | 0.04 | 0.04 | 50 | 999.8 |
| 20260504212702 | 56 | 282 | 9.0 | 15.0 | 0.00 | 0.04 | 0.04 | 51 | 999.9 |
| 20260504212203 | 56 | 322 | 10.0 | 17.0 | 0.00 | 0.04 | 0.04 | 50 | 999.8 |
| 20260504211702 | 57 | 307 | 11.0 | 16.0 | 0.00 | 0.04 | 0.04 | 50 | 999.7 |
| 20260504210702 | 59 | 309 | 5.0 | 22.0 | 0.00 | 0.04 | 0.04 | 48 | 999.6 |
| 20260504210202 | 59 | 316 | 3.0 | 16.0 | 0.00 | 0.04 | 0.04 | 48 | 999.5 |
| 20260504205203 | 59 | 277 | 11.0 | 19.0 | 0.00 | 0.04 | 0.04 | 48 | 999.5 |
| 20260504204712 | 58 | 313 | 5.0 | 19.0 | 0.00 | 0.04 | 0.04 | 50 | 999.5 |
| 20260504204205 | 58 | 326 | 7.0 | 13.0 | 0.00 | 0.04 | 0.04 | 49 | 999.5 |
| 20260504203704 | 59 | 288 | 10.0 | 22.0 | 0.00 | 0.04 | 0.04 | 47 | 999.4 |
| 20260504203204 | 59 | 243 | 7.0 | 12.0 | 0.00 | 0.04 | 0.04 | 48 | 999.3 |
| 20260504202711 | 58 | 253 | 5.0 | 21.0 | 0.00 | 0.04 | 0.04 | 49 | 999.4 |
| 20260504201704 | 58 | 322 | 8.0 | 14.0 | 0.00 | 0.04 | 0.04 | 50 | 999.2 |
| 20260504201203 | 58 | 307 | 7.0 | 19.0 | 0.00 | 0.04 | 0.04 | 49 | 999.2 |
| 20260504200709 | 59 | 312 | 8.0 | 19.0 | 0.00 | 0.04 | 0.04 | 50 | 998.9 |
| 20260504194704 | 59 | 341 | 4.0 | 14.0 | 0.00 | 0.04 | 0.04 | 50 | 999.0 |
| 20260504194204 | 58 | 281 | 3.0 | 15.0 | 0.00 | 0.04 | 0.04 | 50 | 999.0 |
| 20260504193703 | 58 | 316 | 7.0 | 23.0 | 0.00 | 0.04 | 0.04 | 51 | 998.9 |
| 20260504192703 | 60 | 293 | 0.0 | 13.0 | 0.00 | 0.04 | 0.04 | 50 | 998.8 |
| 20260504191703 | 59 | 286 | 7.0 | 15.0 | 0.00 | 0.04 | 0.04 | 50 | 998.6 |
| 20260504190704 | 61 | 272 | 0.0 | 14.0 | 0.00 | 0.04 | 0.04 | 49 | 998.6 |
| 20260504190204 | 60 | 277 | 0.0 | 10.0 | 0.00 | 0.04 | 0.04 | 52 | 998.4 |
| 20260504185809 | 59 | 289 | 0.0 | 13.0 | 0.00 | 0.04 | 0.04 | 52 | 998.5 |
| 20260504185716 | 59 | 289 | 0.0 | 13.0 | 0.00 | 0.04 | 0.04 | 52 | 998.5 |
| 20260504184704 | 59 | 282 | 0.0 | 15.0 | 0.00 | 0.04 | 0.04 | 51 | 998.3 |
| 20260504184204 | 59 | 250 | 7.0 | 20.0 | 0.00 | 0.04 | 0.04 | 51 | 998.3 |
| 20260504183703 | 59 | 295 | 9.0 | 13.0 | 0.00 | 0.04 | 0.04 | 50 | 998.2 |
| 20260504183203 | 58 | 237 | 5.0 | 14.0 | 0.00 | 0.04 | 0.04 | 50 | 998.1 |
| 20260504182712 | 58 | 254 | 0.0 | 20.0 | 0.00 | 0.04 | 0.04 | 50 | 998.1 |
| 20260504181704 | 58 | 255 | 7.0 | 14.0 | 0.00 | 0.04 | 0.04 | 49 | 998.1 |
| 20260504181203 | 58 | 324 | 6.0 | 14.0 | 0.00 | 0.04 | 0.04 | 48 | 998.1 |
| 20260504180703 | 59 | 327 | 17.0 | 24.0 | 0.00 | 0.04 | 0.04 | 46 | 997.9 |
| 20260504180204 | 60 | 288 | 7.0 | 19.0 | 0.00 | 0.04 | 0.04 | 47 | 997.8 |
| 20260504175708 | 60 | 327 | 1.0 | 12.0 | 0.00 | 0.04 | 0.04 | 47 | 997.7 |
| 20260504174710 | 60 | 303 | 8.0 | 18.0 | 0.00 | 0.04 | 0.04 | 46 | 997.4 |
| 20260504174203 | 61 | 288 | 14.0 | 14.0 | 0.00 | 0.04 | 0.04 | 46 | 997.5 |
| 20260504173703 | 61 | 298 | 8.0 | 22.0 | 0.00 | 0.04 | 0.04 | 47 | 997.4 |
| 20260504173204 | 60 | 264 | 6.0 | 15.0 | 0.00 | 0.04 | 0.04 | 50 | 997.4 |
| 20260504172709 | 60 | 295 | 5.0 | 15.0 | 0.00 | 0.04 | 0.04 | 50 | 997.5 |
| 20260504171711 | 61 | 331 | 7.0 | 23.0 | 0.00 | 0.04 | 0.04 | 47 | 997.4 |
| 20260504171205 | 61 | 289 | 10.0 | 16.0 | 0.00 | 0.04 | 0.04 | 49 | 997.3 |
| 20260504160204 | 60 | 302 | 0.0 | 17.0 | 0.00 | 0.04 | 0.04 | 53 | 997.1 |